SCP
0 0 0 0 0 0 0 0 0 0 0 0 0 0 0 0 0 0 0 0 0 0 0 0 0 0 0 0 0 0 0 0 0 0 0 0 0 0 0 0 0 0 0 0
0 0 0 0 0 0 0 0 0 0 0 0 0 0 0 0 0 0 0 0 0 0 0 0 0 0 0 0 0 0 0 0 0 0 0 0 0 0 -0 -0 0 0 0 0
0 0 0 0 0 0 0 0 0 0 0 0 0 0 0 0 0 0 0 0 0 0 0 0 0 0 0 0 0 0 0 0 0 0 0 0 0 0 -0 -0 0 0 0 0
0 0 0 0 0 0 0 0 0 0 0 0 0 0 0 0 0 0 0 0 0 0 0 0 0 0 0 0 0 0 0 0 0 0 0 0 0 0 -0 0 0 0 0 0
0 0 0 0 0 0 0 0 0 0 0 0 0 0 0 0 0 -0 0 0 0 0 0 0 0 0 0 0 0 0 0 0 0 0 0 0 0 0 0 0 0 0 0 0
0 0 0 0 0 0 0 0 0 0 0 0 0 0 0 0 0 0 0 0 0 0 0 0 0 0 0 0 0 0 0 0 0 0 0 0 0 0 0 0 0 0 0 0
0 0 0 0 0 0 0 0 0 0 0 0 0 0 0 0 0 0 0 0 0 0 0 0 0 0 0 0 0 0 0 0 0 0 0 0 0 0 0 0 0 0 0 0
0 0 0 0 0 0 0 0 0 0 0 0 0 0 0 0 0 0 0 0 0 0 0 0 0 0 0 0 0 0 0 0 0 0 0 0 0 0 0 0 0 0 0 0
0 0 0 0 0 0 0 0 0 0 0 0 0 0 0 0 0 0 0 0 0 0 0 0 0 0 0 0 0 0 0 0 0 0 0 0 0 0 0 0 0 0 0 0
0 0 0 0 0 0 0 0 0 0 0 0 0 0 0 0 0 0 0 0 0 0 0 0 0 0 0 0 0 0 0 0 0 0 0 0 0 0 0 0 0 0 0 0
0 0 0 0 0 0 0 0 0 0 0 0 0 0 0 0 0 0 0 0 0 0 0 0 0 0 0 0 0 0 0 0 0 0 0 0 0 0 0 0 0 0 0 0
0 0 0 0 0 0 0 0 0 0 0 0 0 0 0 0 0 0 0 0 0 0 0 0 0 0 0 0 0 0 0 0 0 0 0 0 0 0 0 0 0 0 0 0
0 0 0 0 0 0 0 0 0 0 0 0 0 0 0 0 0 0 0 0 0 0 0 0 0 0 0 0 0 0 0 0 0 0 0 0 0 0 0 0 0 0 0 0
0 0 0 0 0 0 0 0 0 0 0 0 0 0 0 0 0 0 0 0 0 0 0 0 0 0 0 0 0 0 0 0 0 0 0 0 0 0 0 0 0 0 0 0
0 0 0 0 0 0 0 0 0 0 0 0 0 0 0 0 0 0 0 0 0 0 0 0 0 0 0 0 0 0 0 0 0 0 0 0 0 0 0 0 0 0 0 0
0 0 0 0 0 0 0 0 0 0 0 0 0 0 0 0 0 0 0 0 0 0 0 0 0 0 0 0 0 0 0 0 0 0 0 0 0 0 0 0 0 0 0 0
0 0 0 0 0 0 0 0 0 0 0 0 0 0 0 0 0 0 0 0 0 0 0 0 0 0 0 0 0 0 0 0 0 0 0 0 0 0 0 0 0 0 0 0
0 0 0 0 0 0 0 0 0 0 0 0 0 0 0 0 0 0 0 0 0 0 0 0 0 0 0 0 0 0 0 0 0 0 0 0 0 0 0 0 0 0 0 0
0 0 0 0 0 0 0 0 0 0 0 0 0 0 0 0 0 0 0 0 0 0 0 0 0 0 0 0 0 0 0 0 0 0 0 0 0 0 0 0 0 0 0 0
0 0 0 0 0 0 0 0 0 0 0 0 0 0 0 0 0 0 0 0 0 0 0 0 0 0 0 0 0 0 0 0 0 0 0 0 0 0 0 0 0 0 0 0
0 0 0 0 0 0 0 0 0 0 0 0 0 0 0 0 0 0 0 0 0 0 0 0 0 0 0 0 0 0 0 0 0 0 0 0 0 0 0 0 0 0 0 0
0 0 0 0 0 0 0 0 0 0 0 0 0 0 0 0 0 0 0 0 0 0 0 0 0 0 0 0 0 0 0 0 0 0 0 0 0 0 0 0 0 0 0 0
0 0 0 0 0 0 0 0 0 0 0 0 0 0 0 0 0 0 0 0 0 0 0 0 0 0 0 0 0 0 0 0 0 0 0 0 0 0 0 0 0 0 0 0
0 0 0 0 0 0 0 0 0 0 0 0 0 0 0 0 0 0 0 0 0 0 0 0 0 0 0 0 0 0 0 0 0 0 0 0 0 0 0 0 0 0 0 0
0 0 0 0 0 0 0 0 0 0 0 0 0 0 0 0 0 0 0 0 0 0 0 0 0 0 0 0 0 0 0 0 0 0 0 0 0 0 0 0 0 0 0 0
0 0 0 0 0 0 0 0 0 0 0 0 0 0 0 0 0 0 0 0 0 0 0 0 0 0 0 0 0 0 0 0 0 0 0 0 0 0 0 0 0 0 0 0
Wind_Speed_500mb
3 5 12 16 14 8 7 8 15 11 10 6 19 28 42 39 45 53 62 72 82 92 79 70 66 61 53 46 37 29 25 23 23 26 32 36 41 44 47 51 56 61 63 64
6 17 12 7 7 10 7 7 17 16 2 12 21 33 31 36 44 56 56 69 87 84 89 84 77 70 60 48 39 34 29 24 25 28 34 41 47 49 53 55 57 61 63 64
14 7 12 11 9 10 8 11 10 15 12 10 16 18 12 14 26 49 57 62 66 81 91 88 84 79 65 58 46 38 30 25 25 28 34 41 48 54 59 62 63 64 66 68
13 5 14 9 11 15 8 11 6 8 9 8 10 22 9 14 22 14 39 50 67 69 73 90 93 87 77 61 49 39 32 26 26 30 37 44 52 57 60 63 67 68 68 68
15 15 11 11 14 16 14 6 5 2 5 7 8 10 12 6 16 38 19 51 60 68 72 83 99 91 76 62 51 40 33 29 30 32 39 47 52 55 62 67 72 74 73 72
12 1 12 12 5 5 8 5 9 8 3 4 11 16 9 13 17 14 14 28 33 45 62 70 82 83 76 63 52 42 35 33 32 33 40 48 55 59 65 70 73 77 79 78
2 10 4 7 8 4 6 10 7 9 5 17 7 6 29 16 22 20 19 33 37 38 50 61 73 86 81 69 53 43 38 35 33 37 43 50 54 59 65 69 74 79 82 82
11 17 18 11 14 15 12 16 11 15 7 23 6 18 15 22 31 29 31 34 36 40 49 57 74 88 83 69 55 45 40 34 34 40 45 49 54 59 64 69 76 80 82 87
14 17 5 2 4 6 11 11 6 10 5 5 11 18 13 20 22 19 36 34 46 44 49 55 74 86 78 66 53 45 39 34 36 41 47 49 53 60 66 69 73 80 83 87
8 10 3 4 4 5 8 7 8 4 6 12 22 30 28 27 21 22 16 34 41 42 47 57 74 85 75 62 51 45 39 35 37 41 46 50 55 60 65 71 74 79 81 84
10 8 6 6 18 22 6 6 3 4 10 12 8 29 9 15 17 21 21 37 42 45 50 58 75 83 72 62 52 45 37 36 38 43 46 51 58 62 66 71 75 79 81 82
14 10 17 31 2 3 4 17 22 13 15 7 6 46 5 13 19 13 21 39 40 43 48 59 72 83 73 64 56 46 38 36 39 43 47 54 59 64 67 71 77 80 84 83
19 8 13 14 2 5 14 16 12 2 3 26 13 47 6 11 16 26 31 36 38 45 52 59 68 86 80 71 56 45 37 35 39 43 50 55 58 63 66 71 76 79 83 86
43 16 24 40 26 12 12 24 33 44 31 34 59 65 89 40 48 57 49 67 65 63 63 66 76 91 83 68 55 44 38 36 38 43 49 53 59 64 68 72 76 79 81 88
20 29 34 46 57 12 16 32 34 42 61 35 73 55 86 53 57 57 62 62 56 61 63 72 83 96 82 68 54 45 36 34 37 42 46 52 59 64 69 74 76 80 83 87
8 23 22 48 50 18 22 67 32 49 62 47 62 75 68 58 90 71 83 63 57 60 68 69 78 98 83 66 50 37 31 32 36 41 49 54 59 64 67 72 78 80 83 86
15 11 7 50 21 14 16 67 60 66 65 53 54 89 70 61 55 56 61 61 67 68 64 67 77 86 77 57 42 30 27 28 34 42 49 56 62 66 69 72 77 80 84 88
17 15 14 31 9 32 59 48 28 40 67 57 60 64 72 57 86 49 62 63 64 63 58 61 69 78 64 46 32 24 21 25 34 42 49 56 64 67 70 73 75 78 82 87
38 21 21 24 36 51 49 32 15 20 57 54 35 57 64 75 30 69 82 74 74 63 57 59 65 72 53 39 27 19 17 23 33 42 50 56 63 66 68 71 74 76 83 88
37 43 38 32 32 44 61 65 20 6 46 98 51 55 49 14 15 41 39 43 52 50 53 57 71 63 48 35 22 11 12 20 31 41 49 56 61 64 66 68 71 72 77 86
8 17 45 48 42 30 50 17 24 21 77 7 48 49 38 24 38 29 17 31 43 48 54 68 69 56 44 31 18 9 10 20 31 39 45 50 56 59 62 65 66 71 77 83
33 19 17 18 23 41 18 16 38 64 94 70 36 46 47 64 48 44 28 37 48 58 72 71 63 53 42 30 20 11 7 18 28 36 40 43 47 52 56 60 64 65 73 81
25 36 30 25 16 13 33 48 108 119 85 76 47 53 57 59 59 52 52 55 64 77 79 70 62 53 42 31 21 10 9 18 26 29 34 39 42 48 51 56 62 66 70 76
29 33 35 33 38 45 49 95 103 99 99 96 75 68 61 63 62 60 62 71 80 83 78 70 60 50 40 30 18 9 10 19 24 26 30 36 42 44 47 51 58 61 65 72
34 22 41 43 48 47 72 94 101 84 84 76 85 67 68 65 64 73 75 83 90 88 77 67 60 51 40 29 18 9 12 17 20 24 29 33 39 44 45 44 53 57 53 51
38 48 31 35 60 38 59 108 88 74 88 102 99 84 80 76 77 80 80 91 95 88 78 68 61 50 40 29 17 9 14 17 17 20 27 32 37 42 47 52 44 43 51 52
Wind_Direction_500mb
64 87 219 228 202 180 168 204 242 250 245 258 246 249 268 267 238 238 236 234 235 235 229 223 221 219 219 224 233 247 267 286 307 318 320 325 331 333 330 329 330 330 328 327
42 238 206 128 147 175 166 230 265 282 305 197 267 258 260 260 257 245 242 232 238 234 227 219 216 216 221 229 233 248 264 282 301 313 321 328 328 328 329 329 331 327 326 324
176 207 117 153 173 176 212 196 238 239 327 251 300 267 237 274 261 258 252 255 253 241 235 220 216 216 219 224 233 246 260 274 297 310 319 322 323 327 331 330 329 326 324 327
232 198 172 171 218 155 242 210 233 284 4 257 20 290 228 243 275 249 259 251 252 245 237 230 220 217 219 224 232 242 255 270 294 307 318 323 325 326 329 326 324 322 323 323
240 170 175 191 217 165 225 138 164 120 220 351 239 276 257 21 261 265 260 262 256 250 244 232 224 221 221 225 232 240 250 266 289 308 317 319 322 324 324 323 320 319 319 322
249 279 175 205 75 152 127 96 61 59 69 293 228 194 200 185 209 249 250 260 265 258 247 238 232 221 220 223 229 238 246 263 289 306 312 317 320 323 322 320 317 318 319 321
284 213 164 160 112 46 104 73 317 324 351 242 159 220 255 236 229 228 252 281 284 266 245 235 226 214 215 219 228 238 246 263 288 303 312 318 321 320 317 317 316 317 319 320
184 275 178 177 195 182 177 171 168 232 232 284 342 245 268 228 260 257 256 268 273 256 244 236 224 215 214 219 225 234 245 267 290 303 311 316 316 315 315 317 318 319 319 320
179 262 99 109 137 136 183 189 162 97 116 341 242 270 279 260 270 263 260 263 258 252 243 235 221 215 215 218 226 236 249 273 292 303 309 313 314 314 316 318 318 318 320 319
228 289 117 143 128 38 175 171 77 13 263 266 265 276 257 250 247 246 243 239 255 247 240 234 221 214 214 220 229 239 255 277 292 302 307 313 314 315 317 318 319 318 318 318
147 143 239 128 209 168 130 216 68 159 162 206 277 269 224 230 202 228 228 236 247 241 242 236 224 214 216 222 230 241 257 276 291 300 309 313 314 316 316 318 319 319 319 320
200 160 234 237 212 338 238 194 175 200 227 247 133 270 248 196 206 230 236 247 245 246 246 239 228 211 213 221 231 239 256 275 290 301 308 311 314 317 321 322 323 323 322 322
178 214 250 263 83 356 222 201 219 296 157 214 181 255 78 197 240 244 241 245 251 259 249 239 224 213 217 222 226 237 255 275 291 301 307 312 317 320 321 324 323 323 323 323
165 181 201 236 234 133 184 219 218 219 236 235 233 256 269 265 277 274 266 270 268 259 246 239 221 216 218 219 224 236 254 273 287 298 308 315 318 321 323 322 324 326 326 323
173 233 227 244 255 175 207 240 215 216 235 219 251 243 255 262 263 271 278 277 261 252 246 239 227 217 214 216 222 236 254 272 289 301 310 314 320 323 324 325 326 325 326 324
197 243 252 257 260 203 247 255 234 231 242 246 256 261 259 268 275 280 277 278 257 250 250 244 229 219 211 214 222 239 260 280 296 309 316 322 322 324 327 327 326 326 326 325
176 194 191 251 251 122 264 245 237 254 249 232 245 253 276 272 265 265 271 257 252 254 248 235 226 218 207 211 222 241 265 288 308 317 323 324 326 329 329 328 328 330 329 328
200 215 221 249 89 229 249 269 227 234 256 244 245 261 261 262 270 272 265 254 254 248 237 228 221 207 199 206 219 241 273 302 316 322 327 329 329 330 331 331 332 332 331 332
223 214 243 233 236 254 286 240 160 201 264 254 224 243 254 259 287 279 264 262 261 257 241 225 214 194 191 201 214 241 283 314 322 328 330 331 329 332 333 334 335 335 335 335
228 228 236 237 243 246 248 272 175 116 269 268 218 243 248 153 237 259 273 265 240 226 218 205 186 184 189 194 205 240 297 319 328 331 335 334 333 335 336 337 336 339 338 338
161 210 226 236 245 248 254 141 133 189 250 148 211 227 236 200 223 247 257 213 211 208 195 182 178 180 183 188 193 219 295 325 333 335 336 335 335 337 336 337 340 343 343 341
215 190 210 232 249 257 193 152 207 239 256 259 241 229 208 220 224 223 211 193 189 183 174 176 176 178 180 182 192 205 287 325 333 333 336 336 336 338 340 341 342 348 346 347
235 208 222 199 211 220 193 219 225 237 244 249 238 238 227 220 217 209 197 190 184 179 176 178 182 179 178 183 189 210 294 328 334 337 335 335 340 345 344 346 347 351 351 353
221 228 224 234 237 233 219 229 231 231 236 244 251 248 239 219 216 203 195 188 182 181 179 179 181 181 183 184 187 226 310 333 334 339 337 338 344 347 350 352 353 357 355 356
222 187 224 243 246 248 250 244 244 239 241 238 241 243 238 225 217 209 194 190 185 183 181 182 184 185 186 187 196 241 306 327 332 336 337 343 348 348 353 3 359 1 2 351
219 217 209 227 230 220 241 247 249 239 234 239 236 231 232 229 220 206 198 193 187 183 182 182 185 186 187 191 201 248 300 318 328 337 340 348 352 352 354 355 7 12 7 8
Wind_Speed_850mb
3 5 12 16 14 8 7 8 15 11 10 6 19 28 42 39 45 53 62 72 82 92 79 70 66 61 53 46 37 29 25 23 23 26 32 36 41 44 47 51 56 61 63 64
6 17 12 7 7 10 7 7 17 16 2 12 21 33 31 36 44 56 56 69 87 84 89 84 77 70 60 48 39 34 29 24 25 28 34 41 47 49 53 55 57 61 63 64
14 7 12 11 9 10 8 11 10 15 12 10 16 18 12 14 26 49 57 62 66 81 91 88 84 79 65 58 46 38 30 25 25 28 34 41 48 54 59 62 63 64 66 68
13 5 14 9 11 15 8 11 6 8 9 8 10 22 9 14 22 14 39 50 67 69 73 90 93 87 77 61 49 39 32 26 26 30 37 44 52 57 60 63 67 68 68 68
15 15 11 11 14 16 14 6 5 2 5 7 8 10 12 6 16 38 19 51 60 68 72 83 99 91 76 62 51 40 33 29 30 32 39 47 52 55 62 67 72 74 73 72
12 1 12 12 5 5 8 5 9 8 3 4 11 16 9 13 17 14 14 28 33 45 62 70 82 83 76 63 52 42 35 33 32 33 40 48 55 59 65 70 73 77 79 78
2 10 4 7 8 4 6 10 7 9 5 17 7 6 29 16 22 20 19 33 37 38 50 61 73 86 81 69 53 43 38 35 33 37 43 50 54 59 65 69 74 79 82 82
11 17 18 11 14 15 12 16 11 15 7 23 6 18 15 22 31 29 31 34 36 40 49 57 74 88 83 69 55 45 40 34 34 40 45 49 54 59 64 69 76 80 82 87
14 17 5 2 4 6 11 11 6 10 5 5 11 18 13 20 22 19 36 34 46 44 49 55 74 86 78 66 53 45 39 34 36 41 47 49 53 60 66 69 73 80 83 87
8 10 3 4 4 5 8 7 8 4 6 12 22 30 28 27 21 22 16 34 41 42 47 57 74 85 75 62 51 45 39 35 37 41 46 50 55 60 65 71 74 79 81 84
10 8 6 6 18 22 6 6 3 4 10 12 8 29 9 15 17 21 21 37 42 45 50 58 75 83 72 62 52 45 37 36 38 43 46 51 58 62 66 71 75 79 81 82
14 10 17 31 2 3 4 17 22 13 15 7 6 46 5 13 19 13 21 39 40 43 48 59 72 83 73 64 56 46 38 36 39 43 47 54 59 64 67 71 77 80 84 83
19 8 13 14 2 5 14 16 12 2 3 26 13 47 6 11 16 26 31 36 38 45 52 59 68 86 80 71 56 45 37 35 39 43 50 55 58 63 66 71 76 79 83 86
43 16 24 40 26 12 12 24 33 44 31 34 59 65 89 40 48 57 49 67 65 63 63 66 76 91 83 68 55 44 38 36 38 43 49 53 59 64 68 72 76 79 81 88
20 29 34 46 57 12 16 32 34 42 61 35 73 55 86 53 57 57 62 62 56 61 63 72 83 96 82 68 54 45 36 34 37 42 46 52 59 64 69 74 76 80 83 87
8 23 22 48 50 18 22 67 32 49 62 47 62 75 68 58 90 71 83 63 57 60 68 69 78 98 83 66 50 37 31 32 36 41 49 54 59 64 67 72 78 80 83 86
15 11 7 50 21 14 16 67 60 66 65 53 54 89 70 61 55 56 61 61 67 68 64 67 77 86 77 57 42 30 27 28 34 42 49 56 62 66 69 72 77 80 84 88
17 15 14 31 9 32 59 48 28 40 67 57 60 64 72 57 86 49 62 63 64 63 58 61 69 78 64 46 32 24 21 25 34 42 49 56 64 67 70 73 75 78 82 87
38 21 21 24 36 51 49 32 15 20 57 54 35 57 64 75 30 69 82 74 74 63 57 59 65 72 53 39 27 19 17 23 33 42 50 56 63 66 68 71 74 76 83 88
37 43 38 32 32 44 61 65 20 6 46 98 51 55 49 14 15 41 39 43 52 50 53 57 71 63 48 35 22 11 12 20 31 41 49 56 61 64 66 68 71 72 77 86
8 17 45 48 42 30 50 17 24 21 77 7 48 49 38 24 38 29 17 31 43 48 54 68 69 56 44 31 18 9 10 20 31 39 45 50 56 59 62 65 66 71 77 83
33 19 17 18 23 41 18 16 38 64 94 70 36 46 47 64 48 44 28 37 48 58 72 71 63 53 42 30 20 11 7 18 28 36 40 43 47 52 56 60 64 65 73 81
25 36 30 25 16 13 33 48 108 119 85 76 47 53 57 59 59 52 52 55 64 77 79 70 62 53 42 31 21 10 9 18 26 29 34 39 42 48 51 56 62 66 70 76
29 33 35 33 38 45 49 95 103 99 99 96 75 68 61 63 62 60 62 71 80 83 78 70 60 50 40 30 18 9 10 19 24 26 30 36 42 44 47 51 58 61 65 72
34 22 41 43 48 47 72 94 101 84 84 76 85 67 68 65 64 73 75 83 90 88 77 67 60 51 40 29 18 9 12 17 20 24 29 33 39 44 45 44 53 57 53 51
38 48 31 35 60 38 59 108 88 74 88 102 99 84 80 76 77 80 80 91 95 88 78 68 61 50 40 29 17 9 14 17 17 20 27 32 37 42 47 52 44 43 51 52
Wind_Direction_850mb
64 87 219 228 202 180 168 204 242 250 245 258 246 249 268 267 238 238 236 234 235 235 229 223 221 219 219 224 233 247 267 286 307 318 320 325 331 333 330 329 330 330 328 327
42 238 206 128 147 175 166 230 265 282 305 197 267 258 260 260 257 245 242 232 238 234 227 219 216 216 221 229 233 248 264 282 301 313 321 328 328 328 329 329 331 327 326 324
176 207 117 153 173 176 212 196 238 239 327 251 300 267 237 274 261 258 252 255 253 241 235 220 216 216 219 224 233 246 260 274 297 310 319 322 323 327 331 330 329 326 324 327
232 198 172 171 218 155 242 210 233 284 4 257 20 290 228 243 275 249 259 251 252 245 237 230 220 217 219 224 232 242 255 270 294 307 318 323 325 326 329 326 324 322 323 323
240 170 175 191 217 165 225 138 164 120 220 351 239 276 257 21 261 265 260 262 256 250 244 232 224 221 221 225 232 240 250 266 289 308 317 319 322 324 324 323 320 319 319 322
249 279 175 205 75 152 127 96 61 59 69 293 228 194 200 185 209 249 250 260 265 258 247 238 232 221 220 223 229 238 246 263 289 306 312 317 320 323 322 320 317 318 319 321
284 213 164 160 112 46 104 73 317 324 351 242 159 220 255 236 229 228 252 281 284 266 245 235 226 214 215 219 228 238 246 263 288 303 312 318 321 320 317 317 316 317 319 320
184 275 178 177 195 182 177 171 168 232 232 284 342 245 268 228 260 257 256 268 273 256 244 236 224 215 214 219 225 234 245 267 290 303 311 316 316 315 315 317 318 319 319 320
179 262 99 109 137 136 183 189 162 97 116 341 242 270 279 260 270 263 260 263 258 252 243 235 221 215 215 218 226 236 249 273 292 303 309 313 314 314 316 318 318 318 320 319
228 289 117 143 128 38 175 171 77 13 263 266 265 276 257 250 247 246 243 239 255 247 240 234 221 214 214 220 229 239 255 277 292 302 307 313 314 315 317 318 319 318 318 318
147 143 239 128 209 168 130 216 68 159 162 206 277 269 224 230 202 228 228 236 247 241 242 236 224 214 216 222 230 241 257 276 291 300 309 313 314 316 316 318 319 319 319 320
200 160 234 237 212 338 238 194 175 200 227 247 133 270 248 196 206 230 236 247 245 246 246 239 228 211 213 221 231 239 256 275 290 301 308 311 314 317 321 322 323 323 322 322
178 214 250 263 83 356 222 201 219 296 157 214 181 255 78 197 240 244 241 245 251 259 249 239 224 213 217 222 226 237 255 275 291 301 307 312 317 320 321 324 323 323 323 323
165 181 201 236 234 133 184 219 218 219 236 235 233 256 269 265 277 274 266 270 268 259 246 239 221 216 218 219 224 236 254 273 287 298 308 315 318 321 323 322 324 326 326 323
173 233 227 244 255 175 207 240 215 216 235 219 251 243 255 262 263 271 278 277 261 252 246 239 227 217 214 216 222 236 254 272 289 301 310 314 320 323 324 325 326 325 326 324
197 243 252 257 260 203 247 255 234 231 242 246 256 261 259 268 275 280 277 278 257 250 250 244 229 219 211 214 222 239 260 280 296 309 316 322 322 324 327 327 326 326 326 325
176 194 191 251 251 122 264 245 237 254 249 232 245 253 276 272 265 265 271 257 252 254 248 235 226 218 207 211 222 241 265 288 308 317 323 324 326 329 329 328 328 330 329 328
200 215 221 249 89 229 249 269 227 234 256 244 245 261 261 262 270 272 265 254 254 248 237 228 221 207 199 206 219 241 273 302 316 322 327 329 329 330 331 331 332 332 331 332
223 214 243 233 236 254 286 240 160 201 264 254 224 243 254 259 287 279 264 262 261 257 241 225 214 194 191 201 214 241 283 314 322 328 330 331 329 332 333 334 335 335 335 335
228 228 236 237 243 246 248 272 175 116 269 268 218 243 248 153 237 259 273 265 240 226 218 205 186 184 189 194 205 240 297 319 328 331 335 334 333 335 336 337 336 339 338 338
161 210 226 236 245 248 254 141 133 189 250 148 211 227 236 200 223 247 257 213 211 208 195 182 178 180 183 188 193 219 295 325 333 335 336 335 335 337 336 337 340 343 343 341
215 190 210 232 249 257 193 152 207 239 256 259 241 229 208 220 224 223 211 193 189 183 174 176 176 178 180 182 192 205 287 325 333 333 336 336 336 338 340 341 342 348 346 347
235 208 222 199 211 220 193 219 225 237 244 249 238 238 227 220 217 209 197 190 184 179 176 178 182 179 178 183 189 210 294 328 334 337 335 335 340 345 344 346 347 351 351 353
221 228 224 234 237 233 219 229 231 231 236 244 251 248 239 219 216 203 195 188 182 181 179 179 181 181 183 184 187 226 310 333 334 339 337 338 344 347 350 352 353 357 355 356
222 187 224 243 246 248 250 244 244 239 241 238 241 243 238 225 217 209 194 190 185 183 181 182 184 185 186 187 196 241 306 327 332 336 337 343 348 348 353 3 359 1 2 351
219 217 209 227 230 220 241 247 249 239 234 239 236 231 232 229 220 206 198 193 187 183 182 182 185 186 187 191 201 248 300 318 328 337 340 348 352 352 354 355 7 12 7 8